Temp
7 7 7 6 5 3 2 1 0 -0 -1 -1 -1 -1 -1 -1 -1 -2 -2 -2 -1 -1 1 2 2 3 5 6 7 6 7 9 11 9 11 11 11 11 11 11 10 10 10
8 7 5 5 5 4 2 1 0 -0 -1 -1 -2 -2 -2 -1 -1 -3 -3 -2 -2 -0 -1 0 1 2 4 5 6 7 7 8 10 9 10 11 11 11 11 10 10 10 10
8 7 6 4 3 3 3 1 1 0 -1 -1 -2 -3 -2 -2 -3 -3 -3 -3 -3 -3 -2 -0 0 0 2 4 5 6 6 7 8 9 10 10 11 10 10 10 10 10 10
8 7 5 4 4 3 2 1 0 -0 -0 -2 -3 -3 -3 -3 -4 -4 -4 -4 -4 -4 -3 -1 0 -0 1 3 4 5 6 6 8 9 10 9 11 10 9 10 9 9 9
8 7 6 4 3 2 2 1 -0 -1 -2 -3 -3 -4 -4 -4 -4 -5 -4 -4 -4 -5 -5 -4 -1 -1 -1 1 3 4 5 5 7 9 9 8 9 10 10 9 9 9 9
7 5 4 3 2 1 0 -0 -1 -2 -2 -3 -4 -4 -5 -5 -5 -5 -5 -5 -5 -5 -5 -5 -4 -0 -1 -0 1 3 4 5 5 8 9 9 9 9 9 9 9 9 9
6 5 4 3 2 1 -0 -1 -2 -2 -3 -4 -5 -5 -5 -5 -5 -5 -5 -6 -6 -5 -5 -5 -5 -4 -2 -2 -0 1 3 4 5 6 8 9 9 10 10 9 9 9 8
6 5 4 2 1 0 -1 -2 -3 -3 -4 -5 -5 -6 -5 -6 -6 -6 -6 -6 -6 -6 -6 -6 -6 -6 -4 -4 -2 -0 2 3 5 5 7 8 9 9 10 9 8 8 8
6 5 3 1 0 -1 -2 -3 -4 -4 -5 -5 -6 -6 -7 -7 -7 -7 -7 -7 -7 -7 -7 -6 -6 -6 -6 -5 -5 -1 0 2 4 4 6 7 8 9 9 9 9 8 8
5 4 3 1 -1 -2 -3 -4 -4 -5 -5 -6 -6 -7 -7 -7 -8 -8 -8 -8 -8 -7 -7 -7 -7 -7 -7 -6 -6 -5 -1 -0 3 6 4 6 8 8 8 10 9 8 7
4 2 2 -0 -1 -3 -3 -3 -3 -5 -6 -6 -7 -7 -8 -8 -8 -8 -8 -8 -8 -8 -8 -8 -8 -7 -7 -7 -6 -6 -4 -1 0 3 5 5 8 8 8 9 9 8 8
4 2 1 -0 -2 -3 -3 -4 -4 -5 -6 -7 -7 -8 -8 -9 -9 -9 -9 -8 -8 -8 -9 -8 -8 -8 -7 -7 -7 -7 -6 -3 -1 2 4 5 5 8 8 9 9 8 8
4 3 1 -1 -2 -4 -4 -4 -6 -6 -7 -8 -8 -8 -9 -9 -9 -9 -9 -9 -9 -9 -9 -9 -9 -9 -8 -7 -7 -7 -6 -5 -3 0 3 5 4 7 8 8 8 9 8
4 3 0 -1 -4 -4 -5 -5 -6 -6 -7 -8 -8 -8 -9 -10 -10 -9 -9 -9 -9 -9 -9 -9 -9 -9 -9 -8 -8 -7 -7 -6 -5 -1 1 3 3 6 8 8 8 8 8
1 1 -0 -2 -4 -6 -6 -6 -6 -6 -7 -8 -8 -9 -9 -10 -10 -10 -10 -10 -10 -10 -9 -9 -9 -9 -9 -9 -8 -8 -7 -7 -5 -2 0 3 3 6 8 8 8 8 8
1 -0 -1 -3 -5 -6 -7 -7 -7 -7 -8 -8 -8 -10 -10 -11 -10 -10 -10 -10 -10 -10 -9 -9 -10 -10 -9 -9 -8 -8 -8 -7 -7 -4 0 4 5 3 7 8 8 9 8
1 -1 -2 -4 -6 -6 -7 -7 -7 -8 -8 -8 -10 -11 -11 -11 -10 -10 -10 -9 -9 -9 -9 -9 -9 -10 -9 -9 -8 -8 -8 -7 -7 -5 -3 2 3 2 6 8 8 9 9
-0 -2 -4 -5 -6 -7 -7 -7 -7 -8 -9 -9 -10 -11 -11 -11 -10 -10 -10 -9 -9 -8 -8 -9 -9 -10 -9 -9 -8 -8 -7 -7 -7 -5 -3 0 5 2 5 8 8 8 8
-2 -3 -5 -5 -6 -7 -8 -8 -8 -8 -9 -10 -10 -11 -11 -11 -11 -10 -10 -9 -9 -8 -7 -8 -9 -9 -9 -9 -9 -8 -8 -7 -7 -6 -5 -2 2 2 5 7 8 8 8
-3 -5 -6 -5 -6 -7 -9 -8 -8 -9 -9 -10 -10 -10 -11 -11 -11 -10 -9 -9 -8 -7 -8 -8 -9 -9 -9 -9 -9 -8 -8 -8 -7 -6 -6 -4 -0 2 4 7 7 8 7
-4 -6 -6 -6 -7 -8 -9 -8 -9 -9 -9 -10 -10 -10 -11 -11 -10 -10 -9 -8 -7 -8 -8 -8 -9 -9 -9 -9 -9 -8 -8 -8 -7 -6 -5 -3 -2 2 4 6 7 8 8
-5 -6 -6 -6 -7 -8 -9 -9 -9 -9 -9 -10 -10 -11 -11 -11 -10 -9 -8 -7 -8 -9 -8 -8 -9 -9 -9 -9 -9 -8 -8 -7 -6 -6 -5 -3 1 3 3 5 6 7 8
-6 -6 -7 -7 -7 -8 -9 -10 -10 -10 -9 -9 -10 -12 -11 -11 -10 -9 -8 -8 -8 -9 -9 -9 -9 -9 -9 -9 -9 -8 -8 -7 -7 -6 -4 -3 0 3 2 5 6 7 7
-6 -7 -7 -8 -8 -8 -9 -9 -10 -10 -9 -10 -12 -11 -11 -11 -10 -9 -8 -7 -8 -9 -9 -9 -9 -9 -9 -9 -9 -8 -8 -7 -7 -6 -4 -3 -2 -0 2 4 6 6 6
-7 -7 -8 -8 -9 -9 -9 -10 -10 -10 -10 -11 -12 -11 -11 -11 -10 -9 -8 -7 -7 -8 -9 -9 -9 -9 -9 -9 -8 -8 -8 -7 -6 -6 -4 -3 -1 1 2 3 5 5 6
-7 -8 -8 -9 -9 -9 -9 -10 -9 -10 -11 -12 -12 -12 -11 -11 -10 -10 -8 -7 -7 -7 -8 -9 -9 -9 -8 -8 -8 -8 -7 -7 -6 -5 -4 -2 -1 1 3 4 4 5 5
Height
1510 1508 1507 1505 1503 1503 1501 1500 1501 1499 1499 1497 1494 1490 1486 1482 1479 1477 1475 1472 1469 1466 1466 1466 1466 1467 1471 1472 1475 1476 1481 1481 1481 1486 1490 1488 1498 1509 1516 1521 1528 1532 1537
1506 1506 1505 1503 1501 1500 1499 1497 1496 1495 1494 1491 1488 1484 1480 1475 1472 1469 1467 1466 1464 1462 1460 1461 1461 1461 1462 1464 1466 1468 1471 1475 1476 1482 1487 1482 1493 1504 1513 1518 1524 1530 1535
1502 1502 1502 1500 1498 1496 1494 1492 1490 1488 1487 1484 1481 1478 1474 1470 1465 1464 1463 1463 1461 1458 1456 1455 1455 1456 1457 1458 1459 1464 1466 1468 1473 1478 1482 1482 1480 1496 1508 1515 1521 1526 1531
1498 1497 1496 1495 1494 1492 1490 1487 1486 1483 1481 1479 1475 1472 1467 1463 1460 1458 1456 1455 1454 1453 1451 1449 1450 1450 1451 1452 1453 1456 1461 1463 1467 1470 1478 1480 1478 1486 1499 1508 1517 1523 1527
1496 1494 1493 1490 1488 1486 1483 1481 1479 1477 1475 1472 1468 1464 1460 1456 1452 1451 1450 1449 1448 1447 1444 1443 1443 1445 1446 1447 1448 1452 1456 1459 1460 1464 1474 1477 1476 1477 1488 1498 1510 1519 1524
1491 1489 1486 1484 1482 1480 1477 1473 1471 1469 1467 1463 1459 1455 1452 1449 1446 1443 1442 1442 1442 1441 1441 1440 1438 1438 1439 1441 1443 1445 1448 1452 1454 1459 1465 1469 1479 1467 1482 1491 1499 1509 1518
1487 1486 1483 1480 1477 1475 1472 1469 1466 1462 1459 1455 1450 1447 1443 1441 1438 1437 1435 1433 1433 1433 1434 1434 1434 1433 1433 1434 1437 1439 1441 1444 1447 1453 1459 1465 1469 1466 1473 1483 1493 1501 1513
1485 1482 1479 1476 1471 1469 1466 1463 1459 1455 1452 1447 1442 1439 1436 1432 1430 1428 1427 1427 1427 1427 1428 1427 1427 1428 1427 1427 1429 1432 1433 1436 1440 1445 1449 1457 1464 1465 1462 1474 1483 1500 1507
1484 1480 1476 1472 1466 1462 1459 1455 1450 1446 1442 1438 1435 1431 1427 1424 1421 1420 1419 1418 1418 1419 1420 1420 1420 1421 1421 1420 1422 1423 1425 1427 1431 1436 1441 1449 1456 1459 1458 1466 1474 1480 1495
1477 1474 1471 1466 1460 1455 1451 1448 1444 1439 1435 1430 1427 1423 1419 1415 1412 1411 1411 1410 1410 1410 1411 1412 1413 1413 1414 1415 1415 1416 1419 1421 1425 1428 1432 1437 1441 1448 1453 1457 1468 1478 1484
1471 1467 1464 1460 1455 1449 1445 1440 1435 1431 1427 1423 1419 1414 1410 1407 1404 1401 1399 1400 1401 1401 1402 1403 1404 1404 1405 1407 1408 1408 1411 1412 1415 1420 1423 1430 1431 1439 1444 1449 1460 1471 1482
1464 1461 1456 1451 1447 1441 1437 1434 1428 1422 1417 1414 1409 1405 1401 1398 1395 1393 1391 1389 1387 1390 1391 1392 1392 1393 1395 1397 1399 1401 1402 1403 1405 1412 1417 1421 1429 1431 1435 1443 1453 1463 1472
1453 1450 1446 1441 1436 1431 1426 1422 1419 1414 1410 1404 1400 1395 1392 1390 1387 1384 1383 1382 1380 1380 1380 1382 1383 1384 1386 1388 1390 1392 1395 1395 1396 1402 1406 1413 1416 1421 1425 1435 1442 1452 1465
1442 1438 1437 1434 1430 1426 1422 1417 1411 1406 1401 1395 1390 1385 1382 1380 1377 1375 1374 1372 1370 1369 1369 1371 1373 1374 1376 1378 1380 1383 1384 1386 1387 1393 1396 1399 1406 1409 1416 1428 1433 1443 1455
1437 1435 1432 1429 1425 1421 1417 1412 1406 1400 1393 1386 1381 1376 1371 1369 1367 1365 1363 1362 1359 1359 1359 1360 1361 1362 1364 1365 1368 1372 1374 1377 1376 1381 1384 1389 1396 1399 1410 1415 1425 1434 1445
1432 1430 1427 1423 1419 1414 1410 1405 1399 1392 1386 1378 1372 1366 1361 1358 1356 1354 1353 1352 1349 1348 1348 1348 1349 1350 1351 1353 1357 1362 1365 1368 1369 1370 1369 1376 1385 1390 1398 1405 1416 1421 1433
1426 1423 1421 1416 1411 1405 1400 1395 1390 1384 1377 1369 1363 1358 1353 1348 1346 1344 1342 1340 1339 1337 1335 1335 1337 1337 1338 1343 1348 1352 1355 1357 1358 1361 1365 1367 1376 1385 1392 1398 1407 1415 1423
1421 1416 1412 1408 1404 1398 1392 1386 1382 1375 1368 1361 1354 1349 1345 1339 1336 1333 1331 1329 1328 1325 1322 1322 1324 1326 1327 1332 1337 1341 1344 1346 1348 1352 1353 1357 1366 1374 1380 1390 1399 1408 1417
1416 1410 1406 1401 1396 1390 1383 1377 1372 1366 1360 1353 1346 1340 1335 1329 1325 1321 1318 1316 1315 1313 1309 1310 1311 1313 1315 1321 1325 1331 1333 1336 1339 1342 1346 1350 1356 1368 1375 1382 1390 1402 1411
1408 1402 1399 1395 1389 1383 1377 1370 1363 1358 1350 1344 1337 1330 1324 1318 1314 1310 1307 1304 1302 1300 1299 1297 1299 1302 1305 1310 1314 1320 1323 1328 1332 1333 1338 1341 1348 1359 1365 1372 1380 1391 1401
1400 1395 1392 1388 1383 1376 1369 1363 1356 1349 1342 1335 1327 1320 1314 1308 1302 1298 1295 1292 1290 1288 1286 1286 1289 1292 1295 1298 1303 1308 1312 1317 1324 1326 1331 1332 1342 1351 1355 1368 1373 1382 1394
1395 1392 1386 1381 1376 1370 1363 1355 1348 1341 1334 1327 1318 1310 1304 1297 1292 1287 1284 1283 1281 1279 1277 1278 1280 1282 1285 1290 1293 1298 1303 1308 1313 1316 1321 1326 1331 1340 1346 1358 1367 1379 1388
1390 1387 1381 1374 1370 1364 1358 1348 1342 1334 1326 1318 1309 1302 1295 1287 1282 1278 1275 1273 1272 1271 1270 1271 1272 1274 1277 1280 1285 1288 1294 1300 1304 1308 1315 1318 1323 1333 1344 1351 1361 1369 1378
1385 1381 1376 1369 1363 1358 1352 1345 1336 1329 1320 1310 1302 1294 1287 1278 1273 1269 1266 1263 1262 1262 1263 1264 1265 1267 1270 1271 1274 1279 1284 1291 1301 1306 1312 1317 1322 1331 1339 1347 1354 1360 1370
1381 1377 1371 1365 1358 1352 1347 1340 1332 1323 1314 1304 1296 1288 1279 1271 1265 1261 1258 1255 1251 1253 1254 1255 1258 1260 1261 1263 1268 1271 1276 1280 1289 1301 1306 1313 1319 1323 1334 1338 1345 1354 1363
1378 1373 1368 1361 1355 1348 1342 1334 1327 1318 1308 1299 1290 1281 1274 1265 1259 1254 1248 1245 1241 1244 1247 1249 1251 1253 1257 1260 1264 1268 1273 1280 1287 1292 1299 1300 1306 1320 1325 1330 1337 1347 1356
Wind_Speed
7 10 12 13 14 15 18 20 21 21 20 20 23 27 31 39 44 34 29 28 30 26 23 22 22 20 20 21 18 18 22 35 45 24 34 45 44 41 39 43 39 35 32
12 12 11 14 15 15 17 19 21 23 22 24 26 29 37 44 46 35 28 24 23 21 22 20 21 21 21 22 19 20 20 31 35 39 23 29 42 41 44 47 42 36 33
15 15 14 14 15 17 19 20 22 24 25 28 30 30 33 40 35 28 24 21 20 23 24 23 22 23 23 23 22 20 21 25 29 40 32 20 23 43 46 46 44 39 36
14 15 17 17 17 18 20 23 23 25 27 29 29 32 31 34 32 28 29 25 23 24 25 25 23 24 24 25 25 22 24 25 30 32 37 40 35 45 28 45 47 41 41
12 13 15 17 19 19 23 23 22 23 27 28 33 31 29 28 30 30 27 25 24 23 23 24 25 25 25 27 27 25 26 29 29 33 35 40 32 46 41 39 42 41 42
13 13 14 17 18 18 21 23 23 25 30 31 30 29 28 29 29 29 29 29 27 25 22 21 24 26 27 28 28 28 29 30 31 37 30 38 41 50 51 45 45 44 40
14 15 16 17 18 19 19 21 24 29 27 27 28 29 30 28 31 30 30 29 28 27 24 22 21 25 26 28 29 30 31 32 35 35 38 31 45 60 59 51 45 45 37
15 16 18 19 18 20 20 23 25 28 28 27 28 28 30 30 30 30 29 28 27 27 25 25 24 23 27 27 30 31 33 34 37 37 32 36 41 45 63 54 54 40 37
20 19 21 21 21 21 22 23 27 27 28 30 29 27 28 29 29 27 28 30 27 27 27 27 28 26 26 29 30 33 36 36 36 41 38 30 42 49 62 60 60 58 40
23 21 22 22 22 22 23 26 29 28 30 30 29 29 28 28 29 29 28 29 28 27 28 29 30 29 28 28 29 33 37 38 38 46 41 32 29 53 58 69 64 59 53
31 27 23 23 22 22 23 28 31 29 31 31 30 30 31 28 28 30 31 29 27 28 29 29 31 33 33 31 31 32 37 40 40 45 43 39 29 49 59 67 66 62 51
37 30 26 25 23 22 27 28 31 30 30 31 32 33 30 29 29 31 32 33 34 31 30 29 30 32 34 34 34 33 34 39 44 44 48 43 27 49 61 68 66 63 56
45 41 34 28 30 23 26 29 29 29 31 31 32 33 30 29 30 31 32 32 33 34 35 33 34 35 37 37 36 36 35 40 44 44 50 52 33 39 67 65 65 68 56
48 40 34 34 25 26 27 29 30 30 32 33 34 35 32 31 31 32 33 33 33 35 36 38 39 39 39 41 38 37 36 40 44 47 50 55 37 32 66 68 65 63 60
36 33 34 33 27 27 28 31 33 33 32 34 35 37 36 33 33 34 34 35 35 35 36 40 42 41 42 42 42 39 37 39 43 49 53 58 46 33 52 70 65 63 60
38 31 32 30 33 32 32 33 35 35 33 36 39 37 35 33 33 35 35 35 36 35 36 40 43 44 45 41 38 40 38 39 38 45 53 58 47 31 43 70 68 71 66
41 32 30 35 32 32 30 33 36 37 37 37 36 34 33 34 33 35 35 35 36 35 36 40 43 46 46 40 38 40 42 39 38 44 49 57 58 34 36 69 68 71 72
36 34 33 33 31 32 30 31 35 37 36 37 36 34 34 34 35 33 37 36 36 39 43 41 42 45 45 40 40 39 40 42 38 36 47 54 58 44 28 71 64 70 67
37 34 29 31 33 32 31 32 35 36 36 37 36 34 35 37 34 37 37 35 37 37 45 42 40 44 44 39 39 38 41 42 40 44 40 53 66 49 36 68 66 66 68
35 29 29 31 34 32 31 33 35 36 38 38 39 37 36 34 36 35 36 36 34 37 36 44 39 39 42 38 37 39 42 41 39 44 42 49 64 52 32 65 68 68 67
32 27 28 33 32 31 32 34 36 37 39 40 39 36 34 36 33 35 32 31 31 33 34 38 35 37 39 39 36 38 43 42 36 35 37 52 59 51 32 56 68 69 64
26 26 29 34 31 31 33 36 37 37 39 38 38 36 38 36 33 29 29 27 26 25 27 30 34 35 37 35 36 38 41 41 34 31 33 44 54 47 25 48 64 66 63
26 27 33 32 31 31 33 36 36 36 39 38 38 38 39 33 26 26 25 29 25 24 25 27 30 33 34 35 35 35 39 40 37 29 27 37 49 58 37 51 57 64 64
27 31 32 33 33 32 34 34 34 36 37 39 39 39 38 30 27 22 22 31 28 25 26 26 29 31 32 33 34 37 36 38 39 32 27 29 36 57 43 47 58 61 61
28 30 31 32 34 34 35 34 34 36 36 39 40 39 33 32 26 22 24 28 36 28 29 29 29 28 31 32 31 34 39 40 41 35 29 30 32 48 39 44 57 56 56
28 30 30 31 33 34 35 34 35 35 37 39 40 36 35 28 24 23 25 25 30 31 25 24 26 28 26 24 26 29 33 32 32 34 30 41 30 48 36 45 55 58 55
Wind_Direction
295 309 307 299 289 271 264 259 262 270 274 284 292 295 298 303 311 301 293 290 291 291 288 283 283 278 269 261 247 243 227 218 236 267 200 174 187 186 184 184 178 183 186
274 286 286 292 287 282 274 269 266 271 274 279 287 289 297 304 308 304 300 300 293 285 284 279 278 275 269 264 253 243 239 225 217 233 235 154 171 187 184 181 178 181 187
271 278 283 282 277 275 276 269 266 271 270 283 287 290 295 300 297 293 288 285 281 284 283 278 275 274 267 262 255 239 233 222 219 229 236 150 161 167 183 189 180 184 189
274 279 278 277 278 277 272 269 269 266 279 285 287 291 291 292 290 287 286 282 280 278 278 277 271 270 265 258 256 243 232 228 216 219 230 247 189 173 166 179 181 184 186
271 288 292 280 277 277 276 269 268 269 281 285 285 288 288 285 286 284 282 280 279 278 277 273 269 265 264 259 254 245 236 228 218 206 221 237 197 175 174 165 178 185 184
265 281 286 280 280 283 281 277 273 280 281 284 289 286 282 283 281 281 280 278 276 274 270 270 267 261 261 259 254 247 240 232 226 206 204 222 198 170 173 171 172 177 180
269 278 289 287 285 286 285 279 284 285 288 286 284 286 283 280 278 276 274 275 273 269 268 264 264 263 259 259 255 250 241 235 228 215 208 217 197 188 186 176 171 171 174
296 284 294 293 292 291 289 288 292 291 292 290 286 284 283 279 277 275 273 268 265 264 263 264 259 258 256 255 253 248 243 238 230 226 205 211 214 196 189 184 175 170 169
313 297 295 296 298 295 294 295 300 297 296 294 291 287 282 280 277 273 271 269 264 261 260 258 259 258 257 254 255 248 246 239 230 229 217 205 213 200 188 187 186 182 174
315 309 305 301 300 299 300 305 305 300 299 299 295 291 285 279 275 271 267 265 264 260 256 252 252 254 255 255 254 249 245 243 232 226 230 212 198 194 191 199 195 191 183
317 314 309 308 303 300 302 305 308 305 300 299 295 291 288 281 275 270 269 266 263 260 258 255 249 252 252 250 249 252 246 243 237 227 222 220 191 196 189 193 198 197 191
316 312 306 304 301 295 306 307 305 303 301 298 295 293 289 282 274 269 266 268 269 263 260 257 255 247 248 247 247 245 243 244 240 230 224 215 213 199 192 199 200 196 195
312 313 305 299 303 299 302 307 304 302 300 299 296 295 290 282 275 272 269 266 263 261 260 254 252 250 243 244 245 244 240 241 238 233 225 222 225 201 195 194 195 200 197
306 308 302 304 303 301 305 306 303 304 303 300 297 295 292 283 277 273 269 265 262 262 261 258 251 248 246 243 242 242 239 241 240 230 224 226 220 200 196 197 197 198 198
298 302 303 306 307 306 307 309 307 307 306 302 301 296 293 282 276 275 271 268 265 263 260 258 253 249 246 243 238 238 236 238 241 232 227 221 220 199 200 196 195 193 190
298 303 309 311 312 314 313 313 313 310 306 305 303 300 296 287 280 276 273 270 265 262 260 255 252 246 244 242 237 235 235 234 237 233 231 223 213 214 201 198 203 204 188
306 311 313 316 315 316 315 316 315 313 309 309 307 298 293 285 280 278 273 270 269 265 263 256 250 246 244 239 236 233 232 232 236 231 232 221 219 224 207 195 197 203 207
312 313 314 315 318 319 319 319 318 315 313 312 309 302 297 289 282 279 274 269 268 266 264 258 246 244 242 236 233 230 228 230 230 228 232 225 216 223 211 198 196 201 205
307 311 315 317 322 322 324 323 321 319 316 310 308 302 296 289 282 279 277 272 270 264 255 257 245 239 239 232 229 226 225 228 230 225 222 223 220 216 204 196 196 202 204
313 314 323 326 322 325 326 325 325 321 321 316 312 309 300 293 287 283 280 279 271 260 263 250 243 234 236 230 226 223 224 226 226 227 229 220 221 216 203 196 196 198 198
316 321 324 322 322 327 328 327 326 325 321 320 314 311 303 298 289 282 282 280 265 265 255 237 236 233 228 231 224 221 222 223 220 219 223 223 222 213 191 195 202 206 206
318 322 321 319 326 330 330 330 329 328 322 320 319 317 308 303 291 282 280 266 264 263 235 236 229 230 230 225 224 221 219 219 218 218 220 225 217 209 206 193 205 209 209
323 324 320 322 330 333 334 332 332 329 325 325 324 316 311 305 292 283 277 259 261 252 242 230 222 223 226 228 222 221 220 218 219 216 218 224 220 213 216 191 202 206 209
325 323 322 327 331 334 336 335 333 331 330 329 325 316 312 310 300 281 283 258 253 246 235 227 222 222 226 227 224 217 218 216 214 215 206 215 216 218 213 201 203 207 208
322 322 325 328 332 336 337 339 337 337 335 332 322 316 318 316 305 293 277 266 263 251 235 229 225 220 222 225 223 217 213 210 209 203 211 200 208 209 220 202 201 205 208
321 323 326 329 333 336 337 342 340 342 340 327 322 320 316 315 309 306 298 293 260 255 233 231 230 230 229 223 218 214 211 208 206 205 205 202 202 202 213 195 196 203 208